User: anonymous   Login
Location: Monrovia
(34.7865°N, 86.7139°W)
Time: 08:59:15
(UTC+00:00)
Language:

Cosmos 2034 Rocket - Orbit

View from above orbital plane
View from above orbital plane
View from above satellite
View from above satellite

Ground track
Ground track

The orbit data is extracted from the following two-line orbital elements,

1 20150U 89059B   20273.12458094 -.00000063  00000-0 -81431-4 0  9998
2 20150  82.9360 283.9148 0029265 169.1148 252.7314 13.75643311565360
Epoch (UTC): 29 September 2020 02:59:23
Eccentricity: 0.0029265
inclination: 82.9360°
perigee height: 958 km
apogee height: 1001 km
right ascension of ascending node: 283.9148°
argument of perigee: 169.1148°
revolutions per day: 13.75643311
mean anomaly at epoch: 252.7314°
orbit number at epoch: 56536

The dashed part of the orbit path shows where the satellite is in the earth's shadow,  

DLR